When you browse on this site, cookies collect data to enhance your experience and personalize the content and advertising you see.
Visit our Privacy Policy to learn more. By continuing to use the site, you agree to this use of cookies and data.

Hourly Weather Tit-Ebya

Today, 26 September, Saturday

Time Temperature Precipitation Wind Pressure Humidity
00:00 +10°C° 0 mm 3 mps 757 mmHg 70%
01:00 +10°C° 0 mm 3 mps 756 mmHg 71%
02:00 +10°C° 0 mm 3 mps 756 mmHg 72%
03:00 +9°C° 0 mm 3 mps 756 mmHg 72%
04:00 +9°C° 0 mm 3 mps 756 mmHg 73%
05:00 +9°C° 0 mm 3 mps 755 mmHg 73%
06:00 +8°C° 0 mm 3 mps 755 mmHg 74%
07:00 +9°C° 0 mm 3 mps 755 mmHg 72%
08:00 +10°C° 0 mm 3 mps 754 mmHg 70%
09:00 +11°C° 0 mm 3 mps 754 mmHg 65%
10:00 +12°C° 0 mm 3 mps 753 mmHg 58%
11:00 +14°C° 0 mm 4 mps 753 mmHg 51%
12:00 +15°C° 0 mm 5 mps 752 mmHg 43%
13:00 +15°C° 0 mm 5 mps 752 mmHg 42%
14:00 +16°C° 0 mm 5 mps 751 mmHg 40%
15:00 +16°C° 0 mm 5 mps 751 mmHg 38%
16:00 +15°C° 0 mm 5 mps 751 mmHg 42%
17:00 +14°C° 0 mm 4 mps 750 mmHg 47%
18:00 +13°C° 0 mm 3 mps 750 mmHg 51%
19:00 +13°C° 0 mm 4 mps 750 mmHg 51%
20:00 +13°C° 0 mm 4 mps 750 mmHg 51%
21:00 +13°C° 0 mm 4 mps 749 mmHg 52%
22:00 +12°C° 0 mm 4 mps 749 mmHg 52%
23:00 +12°C° 0 mm 4 mps 748 mmHg 53%

Tomorrow, 27 September, Sunday

Time Temperature Precipitation Wind Pressure Humidity
00:00 +12°C° 0 mm 4 mps 747 mmHg 54%
01:00 +12°C° 0 mm 4 mps 747 mmHg 55%
02:00 +12°C° 0 mm 4 mps 746 mmHg 56%
03:00 +12°C° 0 mm 4 mps 746 mmHg 57%
04:00 +12°C° 0.2 mm 4 mps 745 mmHg 64%
05:00 +11°C° 0.2 mm 4 mps 744 mmHg 71%
06:00 +11°C° 0.2 mm 4 mps 744 mmHg 78%
07:00 +12°C° 0.1 mm 4 mps 743 mmHg 75%
08:00 +12°C° 0.1 mm 4 mps 743 mmHg 73%
09:00 +13°C° 0.1 mm 4 mps 742 mmHg 70%
10:00 +15°C° 0 mm 4 mps 742 mmHg 65%
11:00 +16°C° 0 mm 5 mps 741 mmHg 60%
12:00 +17°C° 0 mm 5 mps 741 mmHg 54%
13:00 +19°C° 0 mm 5 mps 740 mmHg 53%
14:00 +19°C° 0 mm 4 mps 740 mmHg 52%
15:00 +20°C° 0 mm 4 mps 739 mmHg 50%
16:00 +18°C° 0.3 mm 4 mps 739 mmHg 56%
17:00 +17°C° 0.3 mm 4 mps 739 mmHg 62%
18:00 +15°C° 0.3 mm 4 mps 739 mmHg 68%
19:00 +14°C° 0.2 mm 3 mps 739 mmHg 68%
20:00 +13°C° 0.2 mm 3 mps 739 mmHg 68%
21:00 +14°C° 0.2 mm 2 mps 739 mmHg 68%
22:00 +11°C° 0 mm 3 mps 739 mmHg 68%
23:00 +10°C° 0 mm 3 mps 739 mmHg 68%

Day after tomorrow, 28 September, Monday

Time Temperature Precipitation Wind Pressure Humidity
00:00 +9°C° 0 mm 3 mps 739 mmHg 68%
01:00 +9°C° 0 mm 3 mps 740 mmHg 70%
02:00 +9°C° 0 mm 3 mps 740 mmHg 72%
03:00 +9°C° 0 mm 3 mps 740 mmHg 74%
04:00 +8°C° 0 mm 3 mps 740 mmHg 77%
05:00 +8°C° 0 mm 3 mps 741 mmHg 80%
06:00 +7°C° 0 mm 2 mps 741 mmHg 84%
07:00 +8°C° 0.2 mm 2 mps 741 mmHg 84%
08:00 +8°C° 0.2 mm 2 mps 741 mmHg 84%
09:00 +9°C° 0.2 mm 1 mps 742 mmHg 85%
10:00 +9°C° 0.5 mm 2 mps 742 mmHg 80%
11:00 +9°C° 0.5 mm 2 mps 742 mmHg 75%
12:00 +10°C° 0.5 mm 2 mps 742 mmHg 71%
13:00 +10°C° 0.1 mm 2 mps 742 mmHg 68%
14:00 +10°C° 0.1 mm 2 mps 742 mmHg 65%
15:00 +10°C° 0.1 mm 3 mps 742 mmHg 63%
16:00 +9°C° 0 mm 3 mps 743 mmHg 66%
17:00 +8°C° 0 mm 3 mps 743 mmHg 69%
18:00 +7°C° 0 mm 2 mps 743 mmHg 72%
19:00 +6°C° 0 mm 2 mps 744 mmHg 77%
20:00 +5°C° 0 mm 2 mps 744 mmHg 82%
21:00 +4°C° 0 mm 2 mps 745 mmHg 87%
22:00 +4°C° 0 mm 2 mps 745 mmHg 90%
23:00 +4°C° 0 mm 2 mps 745 mmHg 92%

29 September, Tuesday

Time Temperature Precipitation Wind Pressure Humidity
00:00 +3°C° 0 mm 2 mps 745 mmHg 95%
01:00 +3°C° 0 mm 2 mps 746 mmHg 95%
02:00 +3°C° 0 mm 2 mps 746 mmHg 95%
03:00 +2°C° 0 mm 2 mps 746 mmHg 96%
04:00 +2°C° 0 mm 2 mps 747 mmHg 96%
05:00 +2°C° 0 mm 2 mps 747 mmHg 95%
06:00 +1°C° 0 mm 2 mps 747 mmHg 95%
07:00 +2°C° 0 mm 2 mps 747 mmHg 91%
08:00 +4°C° 0 mm 2 mps 747 mmHg 87%
09:00 +5°C° 0 mm 2 mps 747 mmHg 83%
10:00 +5°C° 0 mm 3 mps 747 mmHg 75%
11:00 +8°C° 0 mm 3 mps 747 mmHg 66%
12:00 +8°C° 0 mm 4 mps 747 mmHg 58%
13:00 +8°C° 0 mm 4 mps 747 mmHg 59%
14:00 +8°C° 0 mm 4 mps 747 mmHg 60%
15:00 +8°C° 0 mm 4 mps 747 mmHg 62%
16:00 +9°C° 0 mm 3 mps 747 mmHg 66%
17:00 +8°C° 0 mm 3 mps 747 mmHg 71%
18:00 +8°C° 0 mm 2 mps 747 mmHg 76%
19:00 +8°C° 0.1 mm 3 mps 748 mmHg 78%
20:00 +8°C° 0.1 mm 3 mps 748 mmHg 80%
21:00 +8°C° 0.1 mm 3 mps 748 mmHg 82%
22:00 +7°C° 0 mm 3 mps 748 mmHg 83%
23:00 +7°C° 0 mm 3 mps 748 mmHg 83%

30 September, Wednesday

Time Temperature Precipitation Wind Pressure Humidity
00:00 +7°C° 0 mm 3 mps 749 mmHg 84%
01:00 +7°C° 0 mm 2 mps 749 mmHg 86%
02:00 +7°C° 0 mm 2 mps 749 mmHg 88%
03:00 +6°C° 0 mm 2 mps 750 mmHg 90%
04:00 +6°C° 0 mm 2 mps 750 mmHg 91%
05:00 +6°C° 0 mm 2 mps 750 mmHg 92%
06:00 +7°C° 0 mm 1 mps 751 mmHg 93%
07:00 +6°C° 0 mm 2 mps 751 mmHg 88%
08:00 +7°C° 0 mm 2 mps 751 mmHg 84%
09:00 +7°C° 0 mm 2 mps 751 mmHg 80%
10:00 +8°C° 0 mm 2 mps 751 mmHg 76%
11:00 +9°C° 0 mm 2 mps 752 mmHg 72%
12:00 +9°C° 0 mm 2 mps 752 mmHg 67%
13:00 +11°C° 0.1 mm 1 mps 752 mmHg 66%
14:00 +11°C° 0.1 mm 1 mps 752 mmHg 65%
15:00 +11°C° 0.1 mm 1 mps 752 mmHg 64%
16:00 +10°C° 0.1 mm 1 mps 753 mmHg 68%
17:00 +8°C° 0.1 mm 0 mps 753 mmHg 73%
18:00 +8°C° 0.1 mm 0 mps 753 mmHg 77%
19:00 +7°C° 0 mm 0 mps 753 mmHg 80%
20:00 +6°C° 0 mm 0 mps 754 mmHg 82%
21:00 +6°C° 0 mm 0 mps 754 mmHg 85%
22:00 +6°C° 0 mm 0 mps 754 mmHg 87%
23:00 +5°C° 0 mm 0 mps 754 mmHg 88%

1 October, Thursday

Time Temperature Precipitation Wind Pressure Humidity
00:00 +5°C° 0 mm 0 mps 754 mmHg 90%
01:00 +5°C° 0 mm 0 mps 754 mmHg 90%
02:00 +5°C° 0 mm 0 mps 755 mmHg 90%
03:00 +5°C° 0 mm 0 mps 755 mmHg 90%
04:00 +5°C° 0.1 mm 0 mps 755 mmHg 90%
05:00 +6°C° 0.1 mm 1 mps 755 mmHg 90%
06:00 +6°C° 0.1 mm 1 mps 756 mmHg 90%
07:00 +6°C° 0.2 mm 1 mps 756 mmHg 90%
08:00 +7°C° 0.2 mm 1 mps 756 mmHg 89%
09:00 +7°C° 0.2 mm 1 mps 756 mmHg 89%
10:00 +7°C° 0.2 mm 1 mps 756 mmHg 90%
11:00 +5°C° 0.2 mm 2 mps 757 mmHg 90%
12:00 +5°C° 0.2 mm 2 mps 757 mmHg 91%
13:00 +5°C° 0.3 mm 2 mps 757 mmHg 91%
14:00 +4°C° 0.3 mm 3 mps 757 mmHg 91%
15:00 +3°C° 0.3 mm 3 mps 758 mmHg 91%
16:00 +3°C° 0.1 mm 3 mps 758 mmHg 91%
17:00 +3°C° 0.1 mm 3 mps 759 mmHg 90%
18:00 +3°C° 0.1 mm 2 mps 759 mmHg 90%
19:00 +3°C° 0 mm 2 mps 759 mmHg 89%
20:00 +2°C° 0 mm 2 mps 760 mmHg 89%
21:00 +2°C° 0 mm 2 mps 760 mmHg 89%
22:00 +3°C° 0 mm 1 mps 760 mmHg 88%
23:00 +2°C° 0 mm 1 mps 761 mmHg 87%
Show more